Dewpoint
75 72 73 74 75 73 72 74 74 71 73 69 69 70 68 67 68 69 70 74 74 73 72 71 74 74 75 75 75 76 76 76 76 76 75 75 75 75 75 75 75 74 74
72 75 73 73 71 73 73 71 73 74 73 71 70 71 69 68 70 70 71 72 74 74 74 72 73 75 75 75 76 76 76 76 76 76 76 76 76 75 75 75 75 75 75
75 75 75 71 73 73 74 74 71 73 73 72 70 70 69 70 69 71 71 71 72 74 73 73 74 75 75 75 76 77 77 76 76 76 77 77 77 76 76 75 75 75 75
76 75 74 72 73 74 74 73 73 73 73 73 71 71 67 68 68 70 71 71 71 70 73 75 75 75 75 74 75 76 77 77 76 76 76 76 77 76 76 76 76 75 75
74 76 76 75 71 72 73 73 74 73 71 71 71 71 70 68 68 67 70 71 71 71 71 74 75 75 75 74 75 76 76 77 76 76 76 76 76 76 76 76 76 76 75
73 76 74 76 75 75 73 74 74 74 73 72 70 69 71 70 71 68 67 69 69 70 69 71 73 73 75 75 75 75 76 76 77 76 77 76 76 76 76 76 76 76 75
74 75 75 75 76 75 74 74 75 74 74 73 71 70 71 70 69 69 68 69 67 68 70 69 72 72 73 76 75 76 76 76 77 77 77 76 76 75 76 76 75 75 75
75 74 75 74 74 74 73 75 74 71 73 73 71 70 66 68 68 69 70 68 68 66 68 69 72 70 72 73 74 76 76 77 77 77 77 76 76 75 75 75 75 75 75
75 77 76 76 76 77 75 75 75 74 72 73 72 70 67 65 68 70 70 70 67 68 68 68 71 71 72 72 74 74 75 75 77 77 77 76 76 76 76 75 75 75 75
75 75 76 76 75 75 75 74 73 75 74 71 73 72 72 70 67 66 69 68 70 68 68 71 69 68 70 70 73 75 75 75 76 77 77 77 76 76 76 75 75 75 74
75 74 75 75 75 75 74 75 74 75 74 71 73 72 72 72 72 68 66 68 70 71 69 72 71 72 70 70 69 72 75 75 75 75 76 76 76 76 75 75 75 75 74
74 75 75 75 75 75 75 75 76 75 75 75 75 74 72 69 70 70 68 69 68 71 71 71 71 73 71 71 71 72 76 75 74 74 74 75 75 76 76 76 75 75 75
73 75 75 76 75 77 76 77 76 74 76 73 74 72 71 73 70 71 70 69 69 70 71 71 71 73 70 71 71 74 76 74 74 73 73 73 75 75 75 76 76 75 76
71 72 76 75 75 77 76 76 75 74 73 74 74 75 73 71 72 72 71 70 68 68 69 69 73 71 69 70 74 73 72 72 73 72 72 72 72 73 73 74 75 75 75
73 74 74 74 75 77 77 76 74 75 74 75 74 74 73 71 72 73 74 72 69 67 66 69 68 70 71 73 74 72 72 72 71 71 70 70 71 71 72 73 73 73 73
73 73 74 75 77 76 77 76 75 75 75 75 73 73 74 72 72 72 74 74 72 70 68 71 70 70 72 72 73 73 73 73 71 70 70 69 70 70 71 71 71 71 71
73 74 76 76 77 75 75 76 75 75 74 74 73 73 72 74 71 72 73 75 73 72 68 70 70 73 73 74 74 74 75 74 71 69 69 69 69 70 70 70 70 70 70
72 74 76 76 75 74 75 75 74 74 73 73 73 72 72 71 73 74 75 73 71 73 71 70 71 72 73 75 75 75 74 71 71 70 69 69 68 68 68 68 68 68 68
74 76 76 76 75 74 73 74 75 73 74 74 74 73 72 72 71 71 75 73 74 73 72 71 70 72 73 73 75 76 75 74 73 70 68 68 67 67 66 66 66 66 65
74 74 76 76 74 74 75 73 74 75 73 72 73 72 72 72 71 73 73 74 73 73 72 70 69 70 71 73 73 72 72 74 72 70 68 68 68 67 66 65 65 65 63
74 74 75 75 73 71 69 73 74 73 73 73 72 72 73 73 72 73 74 74 73 73 72 71 70 69 68 69 70 70 69 69 73 73 67 68 69 69 69 66 68 67 64
75 75 74 75 75 74 69 67 69 73 73 73 71 72 71 71 71 70 70 71 72 71 71 69 68 68 70 70 71 71 69 67 64 68 67 65 66 66 65 68 69 67 65
75 74 74 74 73 73 68 66 67 71 73 73 73 73 73 73 71 71 69 68 69 69 71 72 70 71 72 71 71 70 70 69 67 68 66 63 64 63 65 62 65 65 65
73 73 73 73 73 73 65 64 66 71 71 72 73 73 73 73 73 72 72 71 71 71 70 70 72 74 74 74 73 71 70 69 68 67 68 63 66 67 67 67 67 65 64
71 71 71 73 73 72 63 63 66 70 68 71 70 71 72 73 69 67 70 70 70 71 68 67 67 66 66 65 70 70 67 65 63 63 70 66 67 66 68 68 69 64 63
69 68 68 70 67 69 63 61 65 68 68 66 70 71 66 69 65 64 71 70 69 70 71 68 66 64 65 66 64 67 66 62 61 62 69 67 66 67 64 69 69 66 65
Lifted_Index
-3 -3 -3 -3 -3 -3 -2 -2 -2 -2 -3 -2 -2 -3 -3 -2 -2 -2 -3 -3 -3 -3 -3 -3 -4 -5 -6 -7 -7 -7 -7 -8 -8 -8 -8 -8 -8 -7 -7 -7 -7 -6 -6
-3 -3 -3 -3 -3 -3 -2 -2 -2 -3 -3 -3 -3 -3 -2 -2 -2 -2 -3 -3 -3 -3 -3 -3 -4 -5 -6 -6 -7 -7 -7 -7 -8 -8 -8 -8 -8 -8 -7 -7 -7 -7 -6
-3 -3 -3 -2 -2 -3 -3 -2 -2 -3 -3 -3 -3 -3 -2 -2 -2 -3 -3 -3 -3 -3 -3 -4 -4 -5 -5 -6 -6 -7 -7 -8 -8 -8 -8 -8 -8 -8 -7 -7 -7 -7 -7
-4 -3 -3 -2 -2 -2 -3 -3 -3 -3 -3 -3 -3 -3 -2 -2 -2 -3 -3 -4 -3 -3 -4 -4 -4 -5 -5 -5 -6 -6 -7 -8 -8 -7 -7 -8 -8 -8 -7 -7 -7 -7 -7
-4 -4 -4 -3 -3 -2 -3 -3 -3 -3 -3 -3 -3 -3 -3 -3 -3 -3 -3 -3 -3 -3 -4 -4 -5 -5 -5 -5 -5 -6 -7 -7 -7 -7 -7 -7 -7 -7 -7 -7 -7 -7 -6
-4 -4 -4 -4 -3 -3 -3 -3 -3 -3 -3 -3 -3 -3 -3 -3 -3 -2 -3 -3 -3 -3 -4 -4 -4 -5 -5 -5 -5 -6 -6 -7 -7 -8 -8 -7 -7 -7 -7 -7 -7 -6 -6
-4 -4 -5 -4 -4 -4 -3 -3 -4 -3 -3 -3 -3 -3 -2 -3 -3 -3 -3 -3 -3 -3 -3 -4 -4 -5 -5 -5 -6 -6 -6 -7 -7 -8 -7 -7 -7 -7 -6 -6 -6 -6 -6
-5 -5 -5 -5 -4 -4 -4 -4 -4 -4 -3 -3 -3 -2 -2 -2 -2 -2 -3 -3 -2 -2 -3 -3 -4 -4 -5 -5 -5 -6 -6 -6 -7 -7 -7 -7 -7 -6 -6 -6 -6 -6 -5
-4 -4 -4 -4 -4 -4 -4 -4 -4 -4 -3 -3 -3 -3 -2 -2 -2 -2 -2 -2 -2 -2 -3 -3 -4 -4 -5 -5 -5 -5 -6 -6 -7 -7 -7 -7 -7 -6 -6 -5 -5 -5 -5
-3 -4 -4 -4 -4 -4 -4 -4 -4 -4 -4 -3 -3 -3 -3 -2 -2 -2 -2 -2 -2 -2 -3 -4 -4 -4 -5 -5 -5 -5 -6 -6 -6 -6 -6 -7 -6 -6 -6 -5 -5 -5 -5
-4 -4 -4 -5 -5 -5 -4 -4 -4 -4 -4 -3 -3 -3 -3 -3 -3 -2 -2 -2 -3 -3 -3 -4 -4 -4 -4 -5 -5 -5 -5 -5 -5 -5 -6 -6 -6 -5 -5 -5 -5 -4 -4
-5 -5 -5 -5 -5 -5 -5 -5 -4 -4 -4 -4 -4 -4 -3 -3 -3 -2 -2 -3 -3 -3 -3 -3 -3 -4 -4 -4 -4 -4 -5 -5 -5 -4 -5 -5 -5 -5 -5 -5 -5 -4 -4
-4 -5 -5 -6 -6 -5 -5 -5 -5 -4 -4 -4 -4 -4 -4 -3 -3 -3 -3 -3 -2 -2 -2 -2 -3 -3 -3 -3 -4 -4 -4 -4 -4 -3 -3 -4 -4 -4 -4 -5 -5 -5 -5
-3 -4 -5 -6 -6 -6 -6 -6 -5 -5 -4 -4 -4 -4 -4 -4 -4 -3 -3 -3 -2 -2 -2 -2 -2 -3 -3 -3 -4 -4 -4 -4 -3 -3 -2 -2 -2 -3 -3 -4 -4 -5 -5
-3 -4 -5 -6 -6 -6 -6 -6 -6 -5 -5 -4 -4 -4 -4 -4 -4 -4 -4 -3 -3 -3 -3 -2 -2 -2 -3 -4 -4 -4 -4 -3 -3 -2 -1 -1 -1 -2 -2 -3 -4 -4 -4
-4 -5 -6 -6 -6 -6 -6 -6 -6 -5 -5 -5 -5 -4 -4 -4 -4 -4 -4 -4 -3 -3 -3 -3 -2 -3 -4 -5 -4 -4 -4 -4 -3 -2 -1 -1 -1 -2 -2 -2 -3 -3 -3
-4 -5 -6 -7 -6 -6 -6 -6 -6 -6 -6 -6 -5 -4 -4 -4 -4 -4 -4 -4 -4 -3 -3 -3 -3 -3 -4 -5 -5 -5 -5 -4 -3 -2 -2 -1 -2 -2 -2 -2 -2 -2 -3
-5 -6 -7 -7 -6 -6 -6 -6 -6 -5 -6 -6 -5 -5 -4 -4 -4 -5 -4 -4 -4 -4 -4 -3 -3 -3 -4 -5 -5 -5 -5 -5 -4 -3 -2 -2 -2 -1 -1 -1 -1 -2 -2
-6 -7 -7 -7 -6 -6 -5 -6 -5 -5 -5 -5 -5 -5 -4 -4 -4 -5 -5 -5 -4 -4 -4 -3 -3 -4 -4 -5 -5 -5 -5 -5 -5 -4 -3 -2 -2 -1 -1 -0 -1 -1 -1
-7 -7 -7 -7 -6 -5 -5 -5 -5 -5 -5 -5 -5 -4 -4 -4 -5 -5 -5 -5 -5 -4 -4 -3 -3 -3 -4 -4 -5 -5 -5 -5 -5 -4 -2 -2 -2 -2 -1 -1 -1 -1 -1
-7 -7 -7 -7 -6 -5 -5 -5 -5 -5 -4 -4 -4 -4 -4 -4 -5 -5 -5 -5 -5 -4 -4 -3 -3 -3 -3 -4 -4 -4 -3 -3 -3 -3 -1 -1 -1 -1 -1 -1 -1 -1 -1
-7 -7 -7 -6 -6 -5 -5 -4 -4 -4 -4 -4 -4 -4 -4 -4 -4 -4 -4 -4 -4 -4 -4 -3 -3 -3 -3 -4 -4 -4 -3 -2 -2 -1 -0 1 1 0 0 -0 -1 -1 -1
-5 -5 -5 -5 -5 -5 -4 -4 -3 -3 -3 -3 -4 -4 -4 -4 -4 -4 -4 -4 -4 -4 -4 -3 -3 -4 -4 -4 -4 -4 -3 -2 -1 -0 1 2 2 1 1 1 1 0 0
-4 -4 -4 -4 -4 -3 -3 -3 -2 -2 -2 -3 -3 -4 -4 -5 -4 -4 -4 -3 -4 -4 -3 -3 -3 -4 -4 -4 -4 -3 -2 -1 -0 0 0 1 1 1 1 1 1 1 1
-2 -2 -2 -2 -2 -2 -2 -1 -1 -1 -1 -2 -2 -3 -3 -4 -4 -4 -3 -3 -3 -3 -3 -3 -3 -3 -3 -4 -4 -3 -2 -1 1 1 -0 -0 0 0 0 -0 -0 0 0
-2 -1 -1 -1 -1 -1 -1 -1 -0 -0 -0 -1 -1 -2 -2 -3 -3 -3 -3 -3 -3 -3 -3 -2 -2 -2 -3 -3 -4 -3 -2 -1 1 1 -0 -1 -0 -0 0 -0 -1 -0 -0